CZ-2D DEB, 43403

Orbit data source: Space-Track

CZ-2D DEB, 43403 is space debris in SSO originally from a launch on Sat, 29 Sep 2012 UTC launched from the Jiuquan Satellite Launch Center, China (JSC). Debris objects in space refer to the collection of defunct objects orbiting the Earth. Examples of debris include non-operational satellites, rocket bodies, and fragments generated from explosions, collisions, or faulty payload assembly.

Loading next visibility...
Identifier
43403, 2012-052C
Orbit
SSO
Country
Flag of CNCN / PRC
Related business
Manufacturer
SAST
Mission
Spacecraft
Bus & Motor
Unknown
Mass
Unknown
Launch date (UTC)
2012-09-29 (13 years ago)
Launch vehicle
Unknown
Launch site
Jiuquan Satellite Launch Center, China (JSC)
Object type
Payload
Rocket body
Debris
Shape & HBR
Unknown
Radar Cross Section
Small (<0.1 m²)

Expand to show TLE details & history
Last TLE update: 19 hours ago

TLE from 19 hours ago
0 CZ-2D DEB
1 43403U 12052C   25258.53589192  .00002014  00000-0  51413-3 0  9992
2 43403  98.0233   0.8896 0194656  54.0217 307.8850 14.40753895616721
Epoch: 2025-09-15T12:51Z
TLE epoch observation values (Epoch: 2025-09-15T12:51:41.061Z)
Latitude
-0.0001°
Longitude
173.22938°
Altitude
675.393 km
Speed
7.563 km/s
True Right ascension
00h 03m 33s
True Declination
0° 00' 00"
Sunlit
Object was in full shadow at epoch
Visualization orbit readout
Latitude
Unknown
Longitude
Unknown
Altitude
Unknown
Speed
Unknown
Apparent Right ascension
Unknown
Apparent Declination
Unknown
Sunlit
N/A
Visualization observer readout
Local Sidereal Time
00:13:06
Azimuth
Unknown
Elevation
Unknown
Doppler factor
Unknown
Orbital elements
Apogee altitude
891.92 km
Perigee altitude
614.292 km
Semi-major axis
7,131.243 km
Eccentricity
0.01947
Inclination
98.0233°
RAAN
0.8896°
Arg. of periapsis
54.0217°
True anomaly
306.09812°
Mean anomaly
307.885°
Eccentric anomaly
306.99422°
Mean motion
3.60409 °/min
Orbital period
99.89 mins
BSTAR
0.00051413
Loading maneuver chart data...
Computing Atmospheric mass density...
Loading historical data...
Loading historical data...
Loading historical data...
Loading historical data...
Loading historical data...
Loading historical data...
Loading historical data...
Other satellites on launch #52 in the year 2012 (2012-09-29 UTC)

Documentation

Showing up to 5 results
|